Weather History for Fitchburg, MA

Change the Weather History Date:

Saturday, September 14, 2013

  Actual Average (KORH) Record (KORH)
Temperature  
Mean Temperature 60 °F 62 °F  
Max Temperature 68 °F 70 °F 90 °F (1915)
Min Temperature 54 °F 54 °F 34 °F (1943)
Degree Days  
Heating Degree Days 5 4  
Month to date heating degree days 41  
Since 1 July heating degree days 80  
Cooling Degree Days 0 1  
Month to date cooling degree days 30  
Year to date cooling degree days 456  
Growing Degree Days 10 (Base 50)    
Moisture  
Dew Point 49 °F    
Average Humidity 69    
Maximum Humidity 90    
Minimum Humidity 52    
Precipitation  
Precipitation 0.02 in 0.13 in 1.59 in (1989)
Month to date precipitation 1.64  
Year to date precipitation 33.00  
Sea Level Pressure  
Sea Level Pressure 29.93 in    
Wind  
Wind Speed 7 mph (NW)    
Max Wind Speed 12 mph    
Max Gust Speed 18 mph    
Visibility 10 miles    
Events      
T = Trace of Precipitation, MM = Missing Value Source: NWS Daily Summary

Daily Weather History Graph

Daily Weather History Graph

Search for Another Location

Airport:

Trip Planner

Search our weather history database for the weather conditions in past years. The results will help you decide how hot, cold, wet, or windy it might be!

Date:

Astronomy

Sep. 14, 2013 Rise Set
Actual Time 6:26 AM EDT 6:58 PM EDT
Civil Twilight 5:57 AM EDT 7:26 PM EDT
Nautical Twilight 5:24 AM EDT 7:59 PM EDT
Astronomical Twilight 4:49 AM EDT 8:34 PM EDT
Moon 3:41 PM EDT (9/14) 12:49 AM EDT (9/14)
Length of Visible Light 13h 28m
Length of Day
12h 32m
Waxing Gibbous, 72% of the Moon is Illuminated
Sep 14
Waxing Gibbous
Sep 19
Full
Sep 26
Last Quarter
Oct 4
New
Oct 11
First Quarter

Hourly Weather History & Observations

Time (EDT) Temp. Dew Point Humidity Pressure Visibility Wind Dir Wind Speed Gust Speed Precip Events Conditions
12:52 AM 59.0 °F 51.1 °F 75% 29.80 in 10.0 mi NW 6.9 mph - N/A   Mostly Cloudy
1:52 AM 59.0 °F 50.0 °F 72% 29.80 in 10.0 mi NNW 9.2 mph - N/A   Overcast
2:52 AM 57.9 °F 50.0 °F 75% 29.82 in 10.0 mi NW 8.1 mph - N/A   Mostly Cloudy
3:52 AM 55.0 °F 52.0 °F 89% 29.82 in 10.0 mi NW 4.6 mph - 0.02 in   Partly Cloudy
4:52 AM 54.0 °F 51.1 °F 90% 29.83 in 10.0 mi NW 5.8 mph - N/A   Clear
5:52 AM 54.0 °F 50.0 °F 86% 29.85 in 10.0 mi WNW 5.8 mph - N/A   Clear
6:52 AM 54.0 °F 48.9 °F 83% 29.87 in 10.0 mi WNW 6.9 mph - N/A   Clear
7:52 AM 57.0 °F 50.0 °F 77% 29.89 in 10.0 mi NW 9.2 mph - N/A   Clear
8:52 AM 61.0 °F 50.0 °F 67% 29.91 in 10.0 mi NW 9.2 mph - N/A   Clear
9:52 AM 63.0 °F 48.9 °F 60% 29.91 in 10.0 mi NNW 11.5 mph 18.4 mph N/A   Scattered Clouds
10:07 AM 62.6 °F 50.0 °F 63% 29.92 in 10.0 mi NW 11.5 mph - N/A   Mostly Cloudy
10:52 AM 61.0 °F 48.9 °F 64% 29.94 in 10.0 mi WNW 9.2 mph - N/A   Overcast
11:52 AM 64.0 °F 48.9 °F 58% 29.93 in 10.0 mi WNW 10.4 mph - N/A   Overcast
12:52 PM 66.0 °F 48.9 °F 54% 29.93 in 10.0 mi NNW 5.8 mph - N/A   Overcast
1:52 PM 66.9 °F 48.9 °F 52% 29.93 in 10.0 mi WNW 6.9 mph - N/A   Overcast
2:52 PM 66.9 °F 48.9 °F 52% 29.94 in 10.0 mi NW 6.9 mph - N/A   Overcast
3:52 PM 66.0 °F 48.0 °F 52% 29.95 in 10.0 mi WNW 8.1 mph 16.1 mph N/A   Overcast
4:52 PM 66.0 °F 48.9 °F 54% 29.97 in 10.0 mi WNW 10.4 mph - N/A   Overcast
5:52 PM 64.9 °F 48.9 °F 56% 29.99 in 10.0 mi NNW 11.5 mph - N/A   Partly Cloudy
6:52 PM 62.1 °F 48.9 °F 62% 30.02 in 10.0 mi NNW 9.2 mph - N/A   Overcast
7:52 PM 57.9 °F 48.9 °F 72% 30.04 in 10.0 mi NW 3.5 mph - N/A   Scattered Clouds
8:52 PM 55.9 °F 48.9 °F 77% 30.06 in 10.0 mi Calm Calm - N/A   Clear
9:52 PM 55.0 °F 48.9 °F 80% 30.06 in 10.0 mi Calm Calm - N/A   Clear
10:52 PM 54.0 °F 48.9 °F 83% 30.06 in 10.0 mi North 5.8 mph - N/A   Clear
11:52 PM 54.0 °F 48.9 °F 83% 30.07 in 10.0 mi Calm Calm - N/A   Clear